DELTA 1 DEB, 7150

Orbit data source: Space-Track

DELTA 1 DEB, 7150 is space debris in SSO originally from a launch on Tue, 06 Nov 1973 UTC launched from the Air Force Western Test Range (AFWTR). Debris objects in space refer to the collection of defunct objects orbiting the Earth. Examples of debris include non-operational satellites, rocket bodies, and fragments generated from explosions, collisions, or faulty payload assembly.

Loading next visibility...
Identifier
7150, 1973-086DQ
Orbit
SSO
Country
Flag of USUS
Related business
Manufacturer
Unknown
Mission
Spacecraft
Bus & Motor
Unknown
Mass
Unknown
Launch date (UTC)
1973-11-06 (53 years ago)
Launch vehicle
Unknown
Launch site
Air Force Western Test Range (AFWTR)
Object type
Payload
Rocket body
Debris
Shape & HBR
Unknown shape, 0.2 m
Radar Cross Section
Medium (>0.1 m² and <1 m²)

Expand to show TLE details & history
Last TLE update: 9 hours ago

TLE from 9 hours ago
0 DELTA 1 DEB
1  7150U 73086DQ  26133.39742708  .00000280  00000-0  27985-2 0  9995
2  7150 101.8886 100.3129 0129698 330.4331 184.8816 12.26291751342848
Epoch: 2026-05-13T09:32Z
TLE epoch observation values (Epoch: 2026-05-13T09:32:17.699Z)
Latitude
24.26724°
Longitude
-88.49882°
Altitude
1,670.532 km
Speed
6.995 km/s
True Right ascension
19h 02m 55s
True Declination
24° 09' 12"
Sunlit
Object was in daylight at epoch
Visualization orbit readout
Latitude
Unknown
Longitude
Unknown
Altitude
Unknown
Speed
Unknown
Apparent Right ascension
Unknown
Apparent Declination
Unknown
Sunlit
N/A
Visualization observer readout
Local Sidereal Time
02:56:37
Azimuth
Unknown
Elevation
Unknown
Doppler factor
Unknown
Orbital elements
Apogee altitude
1,665.833 km
Perigee altitude
1,459.847 km
Semi-major axis
7,940.977 km
Eccentricity
0.01297
Inclination
101.8886°
RAAN
100.3129°
Arg. of periapsis
330.4331°
True anomaly
184.75714°
Mean anomaly
184.8816°
Eccentric anomaly
184.81917°
Mean motion
3.06713 °/min
Orbital period
117.37 mins
BSTAR
0.0027985
Loading maneuver chart data...
Computing Atmospheric mass density...
Loading historical data...
Loading historical data...
Loading historical data...
Loading historical data...
Loading historical data...
Loading historical data...
Loading historical data...

Documentation

Showing up to 5 results
|